Probability
90 81 94 97 97 97 94 90 87 81 74 16 3 0 0 0 0 0 0 3 3 3 3 0 0 3 10 29 55 55 29 13 0 0 0 0 0 0 3 3 0 0 3
94 90 81 81 87 90 87 87 90 81 55 6 0 0 0 0 0 0 0 0 0 0 0 0 0 0 0 3 6 19 10 3 0 3 0 0 0 0 0 0 0 0 0
90 84 84 55 71 84 81 71 81 74 42 23 3 3 0 0 0 0 0 0 0 0 0 0 0 0 0 0 0 0 0 0 0 0 0 0 0 0 0 0 0 0 0
90 84 81 68 68 74 65 45 29 19 16 10 19 6 3 0 0 0 0 0 0 0 0 0 0 0 0 0 0 0 0 6 3 0 0 0 0 0 0 0 0 0 0
74 71 61 52 39 26 23 16 13 10 13 10 13 6 3 0 0 0 0 0 0 0 0 0 0 0 0 0 0 0 0 6 6 0 0 0 0 0 0 0 0 0 0
52 52 45 26 6 0 0 0 0 0 0 0 0 0 3 3 0 0 0 0 0 0 0 0 0 0 0 0 0 0 0 0 3 3 0 0 0 0 0 0 0 0 0
19 13 13 10 0 0 0 0 0 0 0 0 0 0 0 0 0 0 0 0 0 0 0 0 0 0 0 0 0 0 0 0 0 0 0 3 0 0 0 0 0 0 0
0 0 0 0 0 0 0 0 0 0 0 0 0 0 0 0 0 0 0 0 0 0 0 0 0 0 0 0 0 0 0 0 0 0 0 0 0 0 0 0 0 0 0
0 0 0 0 0 0 0 0 0 0 0 0 0 0 0 0 0 0 0 0 0 0 0 0 0 0 0 0 0 0 0 0 0 0 0 0 0 0 0 0 0 0 0
0 0 0 0 0 0 0 0 0 0 0 0 0 0 0 0 0 0 0 0 0 0 0 0 0 0 0 0 0 0 0 0 0 0 0 0 0 0 0 0 0 0 0
0 0 0 0 0 0 0 0 0 0 0 0 0 0 0 0 0 0 0 0 0 0 0 0 0 0 0 0 0 0 0 0 0 0 0 0 0 0 0 0 0 0 0
0 0 0 0 0 0 0 0 0 0 0 0 0 0 0 0 0 0 0 0 0 0 0 0 0 0 0 0 0 0 0 0 0 0 0 0 0 0 0 0 0 0 0
0 0 0 0 0 0 0 0 0 0 0 0 0 0 0 0 0 0 0 0 0 0 0 0 0 0 0 0 0 0 0 0 0 0 0 0 0 0 0 0 0 0 0
0 0 0 0 0 0 0 0 0 0 0 0 0 0 0 0 0 0 0 0 0 0 0 0 0 0 0 0 0 0 0 0 0 0 0 0 0 0 0 0 0 0 0
0 0 0 0 0 0 0 0 0 0 0 0 0 0 0 0 0 0 0 0 0 0 0 0 0 0 0 0 0 0 0 0 0 0 0 0 0 0 0 0 0 0 0
0 0 0 0 0 0 0 0 0 0 0 0 0 0 0 0 0 0 0 0 0 0 0 0 0 0 0 0 0 0 0 0 0 0 0 0 0 0 0 0 0 0 0
0 0 0 0 0 0 0 0 0 0 0 0 0 0 0 0 0 0 0 0 0 0 0 0 0 0 0 0 0 0 0 0 0 0 0 0 0 0 0 0 0 0 0
0 0 0 0 0 0 0 0 0 0 0 0 0 0 0 0 0 0 0 0 0 0 0 0 0 0 0 0 0 0 0 0 0 0 0 0 0 0 0 0 0 0 0
0 0 0 0 0 0 0 0 0 0 0 0 0 0 0 0 0 0 0 0 0 0 0 0 0 0 0 0 0 0 0 0 0 0 0 0 0 0 0 0 0 0 0
0 0 0 0 0 0 0 0 0 0 0 0 0 0 0 0 0 0 0 0 0 0 0 0 0 0 0 0 0 0 0 0 0 0 0 0 0 0 0 0 0 0 0
0 0 0 0 0 0 0 0 0 0 0 0 0 0 0 0 0 0 0 0 0 0 0 0 0 0 0 0 0 0 0 0 0 0 0 0 0 0 0 0 0 0 0
0 0 0 0 0 0 0 0 0 0 0 0 0 0 0 0 0 0 0 0 0 0 0 0 0 0 0 0 0 0 0 0 0 0 0 0 0 0 0 0 0 0 0
0 0 0 0 0 0 0 0 0 0 0 0 0 0 0 0 0 0 0 0 0 0 0 0 0 0 0 0 0 0 0 0 0 0 0 0 0 0 0 0 0 0 0
0 0 0 0 0 0 0 0 0 0 0 0 0 0 0 0 0 0 0 0 0 0 0 0 0 0 0 0 0 0 0 0 0 0 0 0 0 0 0 0 0 0 0
0 0 0 0 0 0 0 0 0 0 0 0 0 0 0 0 0 0 0 0 0 0 0 0 0 0 0 0 0 0 0 0 0 0 0 0 0 0 0 0 0 0 0
0 0 0 0 0 0 0 0 0 0 0 0 0 0 0 0 0 0 0 0 0 0 0 0 0 0 0 0 0 0 0 0 0 0 0 0 0 0 0 0 0 0 0
Height
5871 5869 5866 5862 5859 5856 5854 5852 5849 5846 5843 5841 5839 5837 5835 5833 5831 5829 5827 5825 5823 5821 5820 5818 5817 5817 5816 5816 5815 5814 5813 5813 5812 5811 5812 5814 5814 5815 5815 5814 5815 5815 5814
5866 5863 5859 5856 5853 5850 5848 5846 5843 5839 5836 5834 5831 5829 5827 5825 5824 5821 5819 5816 5814 5812 5811 5809 5808 5807 5807 5806 5804 5803 5802 5802 5802 5801 5802 5803 5806 5805 5805 5804 5805 5805 5804
5859 5857 5854 5850 5847 5843 5840 5838 5834 5831 5829 5826 5824 5822 5819 5817 5815 5812 5810 5807 5805 5803 5801 5800 5799 5798 5798 5797 5795 5794 5792 5792 5792 5791 5791 5793 5795 5795 5795 5794 5795 5794 5794
5853 5850 5848 5845 5842 5838 5835 5832 5829 5826 5823 5820 5818 5815 5813 5810 5807 5804 5801 5798 5795 5792 5790 5789 5788 5788 5787 5786 5786 5785 5783 5782 5782 5782 5782 5782 5784 5785 5785 5785 5784 5784 5784
5846 5844 5842 5840 5837 5833 5830 5827 5824 5821 5818 5815 5812 5810 5807 5803 5800 5796 5792 5789 5785 5782 5780 5778 5776 5776 5775 5775 5774 5774 5773 5773 5773 5772 5772 5772 5772 5773 5774 5775 5775 5774 5774
5841 5840 5838 5835 5832 5829 5825 5822 5819 5817 5814 5811 5808 5805 5801 5798 5795 5790 5786 5781 5776 5772 5769 5766 5764 5762 5762 5762 5762 5762 5762 5762 5762 5762 5762 5762 5762 5762 5762 5764 5765 5764 5765
5836 5834 5832 5830 5826 5823 5819 5817 5814 5811 5809 5806 5803 5799 5796 5793 5789 5785 5780 5775 5769 5764 5759 5756 5753 5750 5749 5748 5749 5749 5750 5751 5751 5752 5751 5751 5751 5751 5751 5753 5754 5755 5756
5829 5828 5826 5823 5819 5816 5814 5811 5809 5806 5803 5799 5796 5792 5789 5785 5781 5777 5772 5767 5762 5757 5751 5746 5743 5740 5737 5736 5736 5737 5738 5739 5740 5740 5740 5740 5740 5740 5741 5742 5743 5745 5746
5823 5820 5818 5815 5811 5809 5806 5803 5801 5797 5793 5790 5786 5783 5780 5777 5773 5769 5764 5760 5755 5749 5743 5737 5733 5729 5727 5725 5725 5725 5726 5727 5728 5728 5729 5729 5729 5729 5730 5731 5733 5735 5737
5814 5811 5808 5805 5801 5798 5796 5793 5790 5787 5784 5781 5777 5774 5771 5768 5765 5761 5757 5752 5747 5741 5735 5729 5724 5720 5717 5716 5715 5715 5714 5715 5716 5717 5717 5717 5717 5718 5720 5721 5723 5726 5730
5804 5801 5797 5794 5791 5788 5785 5782 5780 5777 5774 5772 5769 5766 5763 5759 5756 5753 5749 5744 5740 5734 5729 5723 5717 5712 5709 5708 5707 5705 5705 5705 5705 5705 5705 5706 5706 5708 5710 5712 5715 5719 5723
5793 5789 5786 5783 5780 5776 5773 5770 5767 5765 5763 5761 5759 5757 5753 5750 5747 5744 5741 5737 5732 5727 5722 5716 5711 5706 5703 5700 5699 5697 5695 5695 5695 5695 5696 5697 5698 5700 5702 5705 5708 5712 5716
5782 5779 5776 5772 5769 5765 5762 5758 5755 5752 5750 5748 5747 5745 5742 5740 5737 5734 5732 5728 5724 5720 5716 5711 5705 5701 5697 5695 5692 5690 5688 5687 5686 5687 5689 5690 5691 5693 5696 5699 5702 5706 5710
5770 5767 5763 5759 5756 5752 5749 5745 5741 5738 5736 5734 5733 5732 5730 5729 5727 5725 5723 5720 5716 5712 5709 5705 5700 5696 5692 5689 5687 5684 5682 5681 5681 5682 5684 5685 5686 5688 5690 5694 5697 5701 5705
5757 5753 5748 5744 5740 5736 5733 5730 5727 5723 5720 5718 5717 5717 5717 5716 5715 5714 5713 5711 5708 5705 5701 5698 5694 5690 5687 5684 5682 5680 5678 5678 5678 5679 5680 5681 5683 5684 5686 5689 5693 5697 5700
5743 5737 5733 5728 5724 5720 5717 5714 5711 5708 5705 5703 5701 5700 5701 5701 5701 5701 5700 5700 5698 5695 5693 5691 5688 5685 5682 5680 5678 5677 5675 5675 5675 5676 5677 5678 5679 5681 5682 5685 5689 5692 5696
5727 5721 5715 5711 5707 5704 5700 5697 5694 5692 5689 5686 5683 5682 5682 5684 5685 5685 5686 5686 5686 5685 5684 5683 5680 5678 5677 5675 5674 5673 5672 5671 5672 5672 5673 5675 5676 5678 5680 5682 5685 5689 5692
5708 5702 5695 5690 5686 5682 5678 5675 5672 5670 5667 5665 5663 5662 5662 5664 5665 5667 5669 5671 5672 5672 5672 5673 5672 5671 5670 5669 5668 5668 5668 5668 5668 5668 5669 5671 5672 5675 5677 5680 5683 5686 5689
5688 5680 5673 5666 5661 5655 5651 5648 5646 5644 5641 5639 5638 5638 5639 5642 5644 5647 5651 5654 5656 5658 5660 5662 5662 5662 5662 5662 5661 5662 5663 5663 5663 5663 5665 5666 5669 5671 5675 5678 5680 5683 5686
5663 5655 5648 5642 5636 5628 5621 5619 5618 5615 5613 5612 5612 5613 5613 5617 5621 5625 5630 5636 5640 5644 5647 5650 5652 5653 5654 5654 5654 5655 5656 5656 5657 5658 5660 5662 5664 5667 5670 5674 5676 5679 5682
5637 5628 5620 5615 5610 5601 5593 5591 5591 5588 5586 5585 5586 5587 5588 5592 5597 5603 5609 5616 5622 5628 5633 5637 5641 5643 5645 5646 5647 5648 5649 5650 5651 5653 5655 5657 5660 5662 5666 5669 5672 5676 5679
5609 5600 5591 5587 5583 5577 5570 5567 5566 5563 5562 5562 5564 5567 5569 5573 5578 5584 5590 5596 5603 5611 5618 5623 5629 5633 5636 5638 5640 5641 5642 5644 5646 5648 5650 5653 5655 5659 5662 5666 5670 5673 5676
5589 5582 5575 5570 5567 5562 5557 5554 5552 5549 5548 5548 5550 5552 5555 5558 5561 5566 5571 5577 5585 5593 5602 5610 5617 5623 5626 5630 5632 5633 5635 5638 5642 5644 5647 5650 5653 5656 5660 5664 5667 5670 5673
5575 5569 5563 5558 5554 5550 5545 5542 5540 5537 5536 5536 5536 5537 5538 5540 5541 5545 5550 5556 5565 5574 5586 5597 5605 5612 5617 5622 5625 5627 5629 5633 5637 5641 5644 5647 5650 5654 5658 5661 5665 5667 5669
5563 5557 5550 5545 5541 5536 5532 5529 5526 5523 5522 5522 5521 5521 5520 5521 5521 5522 5525 5532 5544 5558 5571 5585 5595 5603 5610 5615 5619 5621 5625 5629 5633 5637 5640 5643 5647 5650 5654 5658 5661 5663 5664
5551 5543 5536 5529 5524 5519 5515 5512 5509 5507 5506 5506 5506 5505 5504 5504 5504 5504 5507 5514 5527 5543 5557 5571 5584 5595 5602 5607 5612 5617 5621 5625 5630 5634 5637 5640 5643 5647 5651 5655 5657 5658 5661
Wind_Speed
30 32 31 29 27 26 27 28 29 29 26 26 26 27 28 29 30 32 34 35 37 37 37 36 35 36 37 38 40 42 43 44 44 43 40 38 37 35 34 33 33 33 33
32 32 29 27 27 28 30 31 31 29 28 28 29 29 30 31 33 34 35 35 35 35 36 35 34 34 35 35 36 38 39 41 41 41 39 36 35 35 35 35 35 34 34
35 33 29 27 28 32 34 32 30 29 29 28 28 29 30 31 32 33 34 36 37 37 38 38 37 37 37 35 34 34 35 37 38 38 37 36 35 37 36 36 37 37 36
35 32 29 28 30 32 31 29 29 30 31 30 29 28 28 29 30 31 32 34 37 39 40 40 40 39 39 37 36 35 35 35 36 36 37 38 37 36 35 36 36 36 35
28 26 27 28 29 29 28 28 28 29 27 24 22 22 24 26 29 31 33 34 36 37 39 41 42 42 41 39 38 37 36 35 35 36 37 39 39 38 37 34 33 34 34
25 26 27 26 26 27 27 27 26 23 20 18 18 21 23 25 28 30 32 35 36 37 37 39 41 42 42 42 40 39 38 36 36 36 37 38 39 38 38 35 32 32 32
27 26 23 23 25 27 26 24 22 21 20 22 24 25 27 28 29 30 33 35 36 36 37 38 39 40 40 41 42 42 41 38 38 38 38 38 38 38 37 36 35 33 32
22 21 21 23 25 25 23 22 22 23 24 26 28 30 31 32 32 33 34 36 37 37 37 37 38 39 39 40 41 42 42 41 40 39 38 38 38 38 37 37 35 33 31
20 21 22 25 26 26 26 26 27 28 29 30 32 34 35 34 34 34 34 36 37 38 38 37 36 36 37 37 38 39 40 41 41 39 39 39 38 37 36 35 32 29 26
24 26 27 29 30 32 32 32 33 33 32 33 34 36 38 38 37 36 36 35 37 39 40 38 35 34 34 33 33 34 35 37 38 38 39 38 36 35 34 32 29 26 24
32 33 35 37 38 39 40 40 40 38 35 34 35 38 40 42 40 39 38 37 38 40 40 38 34 33 32 31 30 30 31 33 34 35 34 33 32 32 31 28 27 26 25
39 40 43 44 46 47 48 49 49 48 44 40 40 41 41 42 43 41 39 38 38 39 40 37 34 31 29 28 27 27 28 29 30 28 27 25 25 25 26 27 27 27 26
44 46 48 49 51 52 53 54 55 55 53 50 46 44 43 42 42 41 39 38 38 38 38 37 35 32 28 25 24 23 23 24 23 23 22 23 25 25 26 27 28 27 25
47 49 52 53 54 55 57 58 58 59 60 58 54 49 45 42 41 41 40 40 39 38 37 35 34 32 29 25 23 21 19 19 19 21 22 24 26 27 28 28 28 26 23
52 54 56 59 60 60 60 61 61 61 61 61 59 55 50 45 44 44 44 43 41 40 37 34 33 31 28 24 21 19 17 17 19 20 22 24 25 25 26 25 25 24 21
57 59 60 61 60 59 58 58 58 59 61 62 61 59 55 51 50 49 48 46 44 41 38 33 32 29 26 22 19 17 15 17 20 21 21 23 23 22 19 17 17 17 17
61 62 61 60 62 65 67 69 69 68 69 69 68 65 62 59 56 52 48 46 45 42 39 33 30 28 25 22 18 17 15 16 19 21 22 20 19 18 17 16 17 17 18
62 65 70 74 77 79 79 79 78 77 76 75 73 70 66 62 57 52 47 46 45 42 39 34 30 28 25 22 20 18 17 16 17 19 19 18 17 16 16 17 17 17 16
78 82 85 87 87 87 86 85 84 83 81 79 76 72 68 62 55 50 47 46 45 42 39 34 30 28 26 23 20 19 19 19 18 17 17 17 17 17 17 16 16 15 13
83 86 87 89 89 90 90 88 85 82 79 75 71 66 62 56 51 47 46 47 46 43 40 36 31 29 27 24 22 21 21 19 18 17 17 17 18 17 17 17 16 14 13
88 88 87 85 81 78 76 75 72 69 65 61 56 51 48 46 44 44 45 46 45 44 42 39 33 30 28 26 23 22 21 18 16 15 15 16 18 18 17 16 15 15 14
79 74 70 64 58 55 54 52 49 47 46 43 40 39 40 40 40 41 42 45 47 45 43 41 36 32 29 27 24 22 19 18 16 14 13 15 17 18 16 15 14 15 15
55 52 49 45 41 39 39 39 39 39 37 35 34 35 38 41 42 43 44 46 50 47 42 41 37 32 29 27 23 19 18 19 18 15 14 15 17 16 14 14 14 15 15
44 43 42 39 37 36 35 36 37 38 37 35 35 37 39 42 43 45 45 47 52 51 43 41 38 33 29 26 21 17 17 20 19 17 16 16 16 15 13 14 14 14 15
44 43 43 42 41 41 41 40 41 41 39 38 37 39 40 40 40 40 41 47 54 54 47 42 37 32 28 25 22 19 20 22 21 19 16 14 14 14 15 15 13 13 12
48 49 51 52 52 51 50 48 47 46 44 42 39 38 37 37 35 32 34 45 53 56 48 42 37 33 31 28 24 22 22 23 22 19 16 14 13 13 13 12 12 12 13
Wind_Direction
295 301 305 305 302 299 302 307 311 309 301 295 297 296 295 293 292 290 287 285 283 283 283 282 281 279 278 277 276 274 272 270 270 269 269 270 272 273 270 267 267 268 270
299 304 305 303 301 300 301 306 308 308 306 302 301 301 299 297 294 291 288 286 285 284 283 281 281 280 280 280 279 276 273 271 269 267 267 269 270 270 267 265 266 268 269
301 300 298 299 301 302 305 309 311 313 311 309 308 308 307 305 302 299 293 288 285 283 282 280 279 278 278 277 277 276 274 271 269 268 269 273 273 269 269 269 269 269 269
293 290 290 294 298 301 305 310 312 311 312 313 314 316 317 316 313 309 303 294 286 281 278 278 277 276 274 273 272 272 272 272 271 270 271 273 273 273 272 270 269 270 269
283 281 286 292 296 300 304 305 303 304 307 312 319 326 328 329 327 324 318 309 300 292 285 279 276 275 274 275 274 272 272 272 273 273 272 272 272 272 273 268 265 267 269
277 281 286 290 293 295 296 295 296 300 306 311 317 322 325 327 328 327 325 319 311 302 295 287 281 276 274 274 274 273 274 273 271 271 272 273 273 272 270 268 264 265 268
278 282 284 285 285 284 284 288 294 300 304 305 308 313 317 319 321 323 326 325 319 311 303 294 286 279 275 273 272 272 272 272 271 271 272 273 273 271 269 268 266 264 265
279 279 277 274 274 276 279 285 293 299 303 305 307 311 315 317 318 322 325 327 326 320 313 303 291 280 275 272 271 270 270 270 269 270 271 272 272 272 270 269 268 264 260
281 276 273 272 275 281 289 297 303 307 309 311 313 313 315 316 317 319 322 325 327 327 321 313 303 290 280 274 270 268 267 267 267 268 269 270 271 271 269 268 264 257 251
289 286 285 287 292 297 302 305 306 309 311 313 315 315 314 314 314 315 315 319 324 328 326 318 310 301 291 282 276 271 269 268 267 267 268 269 268 265 263 260 251 242 234
295 296 295 296 298 301 304 306 307 306 305 307 312 312 310 310 311 311 312 312 317 324 326 321 315 308 300 292 286 281 276 272 270 269 268 266 262 257 254 246 236 228 225
296 297 297 298 299 301 303 305 306 305 303 303 307 308 306 304 305 306 308 308 311 319 325 323 320 315 307 298 292 288 281 275 270 265 261 256 250 245 238 232 228 223 221
296 296 296 296 296 297 298 299 300 301 300 299 300 302 302 301 300 301 303 305 308 314 321 320 319 319 315 306 301 296 286 274 263 252 246 246 240 235 230 227 226 223 224
292 292 291 291 291 291 292 293 295 295 295 294 293 295 297 298 298 299 300 300 304 308 314 315 313 315 315 311 309 303 288 267 253 243 241 238 231 225 220 220 224 225 226
288 288 288 289 288 287 288 288 290 291 291 289 288 290 293 294 294 296 297 296 297 301 305 308 307 307 310 310 309 303 283 259 244 236 234 230 223 218 211 213 219 223 227
284 282 282 282 279 277 279 281 283 283 282 282 283 286 288 290 291 291 291 290 289 292 295 299 299 299 302 303 302 300 280 253 241 237 233 229 225 221 215 210 209 211 214
277 273 270 272 276 281 283 284 284 284 283 283 285 288 290 290 288 286 285 283 281 281 284 288 290 290 293 294 290 288 282 263 250 245 240 234 231 226 220 211 207 209 211
277 277 280 283 284 285 285 285 285 284 284 284 283 284 285 285 282 280 276 273 271 271 274 277 279 281 283 283 279 275 273 269 259 251 246 244 239 230 223 218 214 211 208
284 284 285 285 286 286 285 284 283 282 281 281 281 281 281 280 277 272 267 263 261 261 264 267 269 272 274 273 272 271 267 263 256 249 243 238 234 232 227 221 215 209 202
285 285 285 286 286 286 285 284 284 283 282 280 279 279 277 274 268 262 256 253 252 251 254 258 260 263 265 264 263 266 263 258 251 243 236 231 227 223 221 219 214 208 203
288 289 289 289 290 289 288 286 285 283 281 278 275 271 266 261 256 252 247 242 243 243 247 250 253 255 257 256 256 260 258 248 238 230 224 220 217 214 211 206 200 198 198
295 296 296 295 294 291 289 289 288 284 279 273 268 262 259 256 254 250 246 239 234 236 241 244 246 248 249 250 250 252 245 228 219 213 207 200 192 184 183 185 188 194 200
300 299 299 299 297 293 292 293 291 288 284 279 274 269 265 263 260 256 252 242 231 226 230 238 241 239 240 242 242 238 225 209 205 205 199 191 183 181 187 191 196 205 213
304 302 300 300 298 295 294 294 293 288 284 280 277 275 273 269 264 259 252 240 228 221 219 229 232 227 229 231 226 215 203 195 196 197 193 189 190 198 205 204 208 218 221
308 303 300 298 296 293 291 290 291 289 285 282 281 281 278 273 269 261 250 231 220 212 208 216 217 214 217 216 206 195 188 186 189 192 189 192 199 205 206 209 220 225 223
308 303 299 297 294 292 289 287 286 285 285 284 283 282 276 274 271 262 242 219 210 203 200 201 199 200 204 204 197 190 185 186 190 194 195 195 194 198 204 213 224 228 227